171  
ASUS44 KCRP 211810  
RWRCRP  
 
SOUTH TEXAS REGIONAL WEATHER ROUNDUP  
NATIONAL WEATHER SERVICE CORPUS CHRISTI TX  
100 PM CDT THU OCT 21 2021  
 
 
TXZ229>244-211900-   
..CORPUS CHRISTI AREA OBSERVATIONS
 
 
 
CITY SKY/WX TMP DP RH WIND PRES REMARKS
 
CORPUS CHRISTI PTSUNNY 83 72 69 E5 30.12F  
NAS CORPUS CHR PTSUNNY 85 73 67 NE8 30.12F HX 91  
ROCKPORT PTSUNNY 85 75 72 VRB7 30.12F HX 93  
KINGSVILLE NAS PTSUNNY 86 70 58 CALM 30.11F HX 90  
ALICE MOSUNNY 87 70 56 NE5 30.12F HX 92  

 
   
..VICTORIA AREA OBSERVATIONS
 
 
 
CITY SKY/WX TMP DP RH WIND PRES REMARKS
 
PORT LAVACA CLOUDY 82 72 71 CALM 30.14F  
VICTORIA MOSUNNY 85 68 56 E3 30.14F  
BEEVILLE CLOUDY 86 73 65 NE5 30.12F HX 92  
PLEASANTON MOSUNNY 84 69 60 CALM 30.16S  
SAN ANTONIO PTSUNNY 79 66 64 NE6 30.17F  

 
   
..LAREDO AREA OBSERVATIONS
 
 
 
CITY SKY/WX TMP DP RH WIND PRES REMARKS
 
LAREDO PTSUNNY 87 72 60 E5 30.12F HX 93  
COTULLA MOSUNNY 88 67 49 SE7 30.13F HX 91  
DEL RIO CLOUDY 79 70 74 SE6 30.16F  
MCALLEN PTSUNNY 88 71 57 E7 30.09F HX 94  
HEBBRONVILLE MOSUNNY 85 67 55 CALM 30.13F  

 
   
..OTHER TEXAS OBSERVATIONS
 
 
 
CITY SKY/WX TMP DP RH WIND PRES REMARKS
 
BROWNSVILLE SUNNY 90 71 53 VRB6 30.09F HX 96  
HOUSTON PTSUNNY 83 67 58 SE6 30.12F  
COL. STATION MOSUNNY 86 66 51 VRB5 30.13F  
AUSTIN PTSUNNY 82 65 56 NE3 30.15F  
TEMPLE PTSUNNY 83 67 58 NE5 30.17F  
WACO MOSUNNY 82 67 60 CALM 30.16F  
FORT WORTH MOSUNNY 80 49 33 NE7 30.17F  
WICHITA FALLS SUNNY 75 44 33 NE10 30.22F  
LUBBOCK MOSUNNY 71 48 43 S12 30.24F  
EL PASO MOSUNNY 78 29 16 N10 30.25F  

 
   
..MARINE OBSERVATIONS
 
 
 
STATION/POSITION TIME SKY/WX TEMP WIND PRES VSBY WAVE SWELL
 
AIR SEA DIR/SP/G HT/PER HT/PER  
(UTC) (F) (DEG/KT/KT) (MB) (MI) (FT/S) (FT/S)  
PORT ARANSAS 1800 76 40/ 11/ 12 N/A  
MALAQUITE BEACH 1730 80 20/ 10/ 11 N/A  
BUOY 6 SE PORT A NOT AVBL  
BUOY 90 E PORT A 1750 79 82 1019.8F 2/ 8 2/ 8  
BUOY 45 SE BAFFI 1750 80 80 40/ 6/ 8 1019.6F 3/ 8 2/ 8  
BUOY 200 E PT IS 1750 82 83 90/ 6/ 8 1019.2F 2/ 7 2/ 7  
BUOY 15 E GALVES 1750 74 20/ 6/ 8 1020.0F  

 
 
 
CLICK HERE TO GO TO PREVIOUS BULLETINS.

The Nexlab TX Page Main Text Page